User: anonymous   Login
Location: Ash Swamp
(41.5170°N, 74.6157°W)
Time: 08:52:30
(UTC+00:00)
Language:

Okean 1 - Orbit

View from above orbital plane
View from above orbital plane
View from above satellite
View from above satellite

Ground track
Ground track

The orbit data is extracted from the following two-line orbital elements,

1 19274U 88056A   20272.57685005 +.00001170 +00000-0 +77230-4 0  9991
2 19274 082.5045 064.2668 0011816 177.6762 182.4523 15.06489673734282
Epoch (UTC): 28 September 2020 13:50:39
Eccentricity: 0.0011816
inclination: 82.5045°
perigee height: 539 km
apogee height: 555 km
right ascension of ascending node: 64.2668°
argument of perigee: 177.6762°
revolutions per day: 15.06489673
mean anomaly at epoch: 182.4523°
orbit number at epoch: 73428

The dashed part of the orbit path shows where the satellite is in the earth's shadow,  

DLR